Location: ?????????
(41.2286°N, 23.0068°E)
Time: 08:12:30
(UTC+00:00)

Intercosmos 25 Rocket - Pass Details

Date: 08 November 2025
Orbit: 436 x 2957 km, 82.6° (Epoch: 04 December)

Event Time Altitude Azimuth Distance (km) Brightness Sun altitude
Exits shadow 03:20:29 19° 216° (SW) 1,728 5.5 -20.4°
Maximum altitude 03:23:54 53° 287° (WNW) 1,156 4.5 -19.7°
Drops below altitude 10° 03:31:37 10° 2° (N) 3,557 7.4 -18.3°
Sets 03:35:28 0° 7° (N) 4,966 8.2 -17.6°
